This demonstration page uses our WeatherBlox Daily Observations layout. Learn more.

41.86663, -103.66717

Hourly Observations for June 10, 2019

Temp ( °F °C ) Dew Point ( °F °C ) Humidity (%) Winds ( mph kmh ) Pressure ( in mb ) Visibility ( mi km ) Precip ( " mm )
12:53 am 00:53 Clear 43 6.1 36 2.2 76 76 ENE 7 11 30.42 1030 10 16.0934 0 0
1:53 am 01:53 Clear 44 6.7 36 2.2 73 73 Calm 30.4 1030 10 16.0934 0 0
2:53 am 02:53 Clear 41 5 35 1.7 79 79 E 6 9 30.41 1030 10 16.0934 0 0
3:53 am 03:53 Clear 41 5 36 2.2 82 82 Calm 30.4 1030 10 16.0934 0 0
4:53 am 04:53 Clear 39 3.9 34 1.1 82 82 Calm 30.41 1030 10 16.0934 0 0
5:53 am 05:53 Sunny 40 4.4 35 1.7 83 83 ESE 5 7 30.41 1030 10 16.0934 0 0
6:53 am 06:53 Sunny 47 8.3 39 3.9 74 74 E 7 11 30.38 1029 10 16.0934 0 0
7:53 am 07:53 Sunny 55 12.8 40 4.4 57 57 ESE 9 15 30.35 1028 10 16.0934 0 0
8:53 am 08:53 Sunny 60 15.6 44 6.7 56 56 SSE 8 13 30.33 1027 10 16.0934 0 0
9:53 am 09:53 Sunny 68 20 49 9.4 51 51 SSW 15 24 30.29 1026 10 16.0934 0 0
10:53 am 10:53 Sunny 72 22.2 49 9.4 44 44 S 15 24 30.26 1025 10 16.0934 0 0
11:53 am 11:53 Sunny 74 23.3 52 11.1 46 46 SSW 14 22 30.23 1024 10 16.0934 0 0
12:53 pm 12:53 Sunny 75 23.9 52 11.1 45 45 SW 14 22 30.21 1023 10 16.0934 0 0
1:53 pm 13:53 Sunny 75 23.9 53 11.7 46 46 SW 10 17 30.17 1022 10 16.0934 0 0
2:53 pm 14:53 Sunny 75 23.9 54 12.2 48 48 SW 15 24 30.15 1021 10 16.0934 0 0
3:53 pm 15:53 Sunny 77 25 55 12.8 47 47 SW 9 15 30.12 1020 10 16.0934 0 0
4:53 pm 16:53 Sunny 77 25 55 12.8 47 47 ESE 6 9 30.09 1019 10 16.0934 0 0
5:53 pm 17:53 Sunny 76 24.4 55 12.8 48 48 VRB 7 11 30.06 1018 10 16.0934 0 0
6:53 pm 18:53 Sunny 73 22.8 52 11.1 48 48 NNW 5 7 30.06 1018 10 16.0934 0 0
7:53 pm 19:53 Sunny 71 21.7 48 8.9 44 44 NNE 5 7 30.03 1017 10 16.0934 0 0
8:53 pm 20:53 Clear 64 17.8 45 7.2 50 50 N 9 15 30.04 1017 10 16.0934 0 0
9:53 pm 21:53 Clear 65 18.3 43 6.1 45 45 NNE 15 24 30.03 1017 10 16.0934 0 0
10:53 pm 22:53 Clear 64 17.8 43 6.1 46 46 NE 14 22 30.01 1016 10 16.0934 0 0
11:53 pm 23:53 Clear 63 17.2 41 5 45 45 NE 8 13 30.02 1017 10 16.0934 0 0

Powered by AerisWeather